Location: Emblem
(62.4273°N, 6.4710°E)
Time: 15:46:29
(UTC+02:00)

Altair - Pass Details

Date: 16 February 2023
Orbit: 1501 x 1682 km, 47.2° (Epoch: 31 March)

Event Time Altitude Azimuth Distance (km) Brightness Sun altitude
Rises 18:26:15 0° 238° (WSW) 4,709 11.5 -8.3°
Reaches altitude 10° 18:29:40 10° 229° (SW) 3,751 10.6 -8.7°
Maximum altitude 18:37:40 32° 171° (S) 2,494 8.6 -9.6°
Drops below altitude 10° 18:45:55 10° 114° (ESE) 3,876 9.1 -10.6°
Enters shadow 18:46:52 - 111° (ESE) 4,132 9.2 -10.7°
